RH
33 25 17 18 54 83 81 92 99 99 101 96 90 56 23 35 64 73 79 88 71 64 84 71 49 48 51 54 55 54 50 47 44 38 35 34 43 54 59 63 70 79 83 84 87 89 87 86 87 85 85 83 82 82 80 77 77 73 68 62 50 45 45 43 44 42 37 30 23 23 26 28 27 26 26 25 23 21 19 15 12 11 9 9 9 7 7 8
43 30 20 11 26 61 74 83 95 99 101 98 94 70 31 22 54 80 91 100 83 69 86 80 60 55 52 53 59 60 56 50 44 37 30 31 40 52 61 67 71 76 78 79 83 89 88 83 84 84 85 84 81 80 77 75 75 72 69 65 52 43 44 45 44 43 40 33 24 23 26 28 27 25 25 23 22 20 16 15 13 12 11 9 9 8 7 6
52 38 24 15 12 32 54 67 81 91 99 100 93 82 42 11 52 96 96 100 93 78 89 86 68 62 58 55 64 68 62 59 48 34 27 28 33 41 56 66 68 69 72 77 81 86 89 85 84 84 86 85 81 78 73 71 71 70 69 67 59 48 44 44 45 43 42 37 27 23 26 28 27 25 24 22 21 17 14 16 15 14 14 11 9 9 8 7
52 48 32 21 14 18 32 48 65 77 93 102 94 90 59 13 47 99 97 100 98 85 92 89 72 69 65 59 68 72 70 69 47 29 29 28 28 31 44 57 61 64 69 79 84 88 92 90 90 87 85 83 81 77 70 67 66 66 67 67 65 57 47 43 45 44 43 41 31 24 25 28 28 26 24 22 19 14 15 19 18 16 15 11 9 9 8 7
47 54 45 32 26 26 26 37 56 64 80 101 98 95 76 26 41 91 100 100 97 89 92 89 76 73 73 67 71 74 78 74 38 24 34 29 29 29 33 46 53 58 67 82 91 94 95 92 90 86 80 77 77 75 70 66 64 62 63 64 65 64 58 50 46 44 44 43 36 26 25 29 28 26 25 22 17 14 17 20 18 18 15 10 8 8 7 7
48 54 54 49 49 45 36 38 51 55 69 97 100 97 89 45 33 66 90 100 96 89 91 89 80 75 79 76 77 78 73 59 29 22 35 31 32 32 31 38 44 54 71 88 96 98 96 91 87 82 76 73 72 72 70 69 68 65 63 62 63 65 65 61 54 48 46 44 41 31 25 28 29 27 25 21 18 17 18 17 16 17 15 10 8 8 8 7
52 56 61 64 66 60 49 44 47 48 61 91 101 97 97 67 31 31 68 101 96 89 92 92 88 79 79 82 86 85 66 49 34 26 32 35 36 36 37 36 43 62 81 95 100 99 96 89 85 81 76 73 70 70 69 69 70 69 67 65 65 66 66 65 61 56 51 47 44 38 29 28 30 28 25 21 20 20 17 14 13 13 13 11 9 8 8 7
55 59 72 75 74 67 58 51 43 37 44 74 99 98 99 87 45 17 55 103 99 92 92 89 95 87 79 79 83 86 65 49 44 33 33 39 39 43 45 42 56 80 91 98 100 97 92 88 85 83 79 75 72 71 70 69 70 71 70 69 70 70 70 69 67 64 61 55 49 45 36 29 30 28 25 22 22 21 16 13 12 10 10 10 10 9 9 8
58 58 72 77 78 72 66 59 48 43 34 49 87 100 97 99 66 22 49 100 101 97 94 87 94 97 92 82 84 83 53 42 47 41 41 42 40 46 52 53 69 90 96 98 100 96 91 88 86 83 81 78 76 75 74 73 71 72 74 74 75 74 73 73 72 69 69 67 58 51 44 33 29 29 25 22 23 22 18 14 12 10 9 9 10 9 9 8
59 55 63 70 76 71 68 64 59 63 46 33 68 99 96 101 84 35 46 94 101 98 96 92 91 97 102 93 96 82 46 48 53 41 46 46 39 43 55 67 79 90 97 100 98 95 91 89 86 84 83 81 80 79 78 78 75 74 75 76 76 75 75 74 74 73 71 72 66 56 49 39 30 29 25 21 24 24 20 16 12 11 10 9 10 9 9 9
59 54 57 62 70 68 66 66 64 73 63 35 48 89 98 99 93 51 54 92 98 99 98 94 93 95 101 98 99 77 50 66 62 43 52 53 46 41 48 70 85 89 94 100 97 92 91 90 89 88 87 85 83 82 80 80 78 76 76 76 76 76 77 77 77 77 74 74 72 65 57 45 33 27 24 22 24 25 21 18 14 12 10 9 10 9 9 9
62 60 61 63 67 66 63 62 65 71 66 42 34 72 99 100 94 63 64 91 93 98 99 95 100 97 99 100 98 78 60 75 69 52 56 58 58 51 52 73 88 90 93 98 98 93 91 90 91 92 91 88 85 84 84 84 83 81 81 80 80 80 80 81 81 80 78 76 73 73 68 54 38 26 24 25 24 25 22 19 16 13 10 9 9 9 9 9
65 69 71 71 72 70 65 59 61 63 57 40 26 54 91 102 97 70 67 89 93 98 99 97 100 98 101 100 97 86 74 80 77 60 57 59 63 63 67 80 89 93 96 96 94 92 91 90 92 95 96 93 89 88 87 87 87 87 86 86 86 87 86 84 82 80 78 77 72 76 77 64 47 30 25 27 24 24 23 19 17 14 11 9 9 9 9 9
66 73 76 75 73 69 64 58 54 54 46 35 29 44 78 103 98 74 70 87 94 99 99 95 98 99 100 98 97 95 88 89 85 70 60 57 60 66 73 83 92 95 96 97 95 93 93 93 94 97 98 96 93 91 90 88 89 90 90 91 91 92 92 84 80 78 75 74 72 77 80 70 56 39 26 26 26 24 24 20 19 16 13 10 8 9 9 9
72 73 75 74 71 65 63 59 49 48 50 52 53 46 63 100 99 73 71 83 88 97 101 96 97 98 97 100 99 98 96 95 91 80 69 58 57 62 69 82 94 96 98 100 98 97 97 94 94 98 100 98 95 94 94 91 90 91 90 93 94 92 90 81 76 76 73 72 73 76 78 70 61 49 33 27 27 25 24 23 21 19 15 12 10 8 9 9
77 71 72 71 69 65 60 58 50 48 55 64 67 45 45 90 101 74 72 81 80 90 101 99 99 97 97 100 97 98 100 95 90 87 81 70 62 60 62 74 91 99 100 100 99 100 100 98 97 99 100 99 98 97 96 95 93 91 89 92 92 86 81 77 74 73 71 71 74 76 76 69 63 58 43 29 28 28 25 25 23 21 18 15 12 9 8 9
79 73 71 68 67 65 58 56 53 48 47 44 46 38 39 79 100 80 77 88 82 84 97 102 100 97 98 99 96 99 99 93 91 92 89 81 75 70 63 67 85 98 98 99 102 100 99 100 100 100 101 100 99 100 98 98 97 93 92 94 89 79 75 76 76 71 69 70 73 76 75 68 63 62 52 33 28 29 25 25 24 22 21 18 15 11 8 8
79 72 69 66 63 62 57 53 49 46 43 35 33 33 34 65 98 93 88 98 93 88 95 99 99 99 100 97 93 92 93 96 95 91 92 89 84 82 71 64 73 85 92 97 98 99 99 98 99 99 100 100 99 100 99 98 97 93 91 92 85 76 72 76 76 70 67 67 70 74 74 67 62 64 59 40 28 28 26 25 25 23 22 20 18 13 9 8
73 67 63 63 62 60 55 51 51 47 42 46 51 43 29 50 90 99 96 102 100 95 98 100 99 96 90 85 87 90 93 99 95 86 87 90 88 87 81 72 66 68 76 82 87 92 93 95 101 102 99 100 100 99 99 98 94 89 86 84 80 72 67 68 68 69 67 66 68 71 72 67 62 64 64 53 35 27 26 26 25 24 22 21 20 16 11 8
74 69 64 62 60 57 52 51 57 62 61 63 67 58 37 43 79 99 100 101 99 92 92 98 100 94 88 87 89 92 96 101 98 87 81 85 87 87 88 81 73 68 62 62 71 78 87 96 91 85 91 96 97 98 98 99 95 90 86 82 78 71 66 64 66 73 71 69 73 71 72 68 60 61 64 64 51 32 25 26 25 24 24 22 21 20 14 9
72 67 64 61 58 56 52 48 51 63 76 73 63 59 45 36 62 89 94 96 98 91 90 96 99 98 97 94 89 90 97 101 99 92 85 86 86 87 92 87 80 76 67 59 57 61 80 92 73 62 79 82 79 83 86 91 93 90 86 82 80 74 72 73 74 79 74 73 76 70 70 66 57 57 56 63 64 45 27 25 26 24 23 23 21 21 18 11
62 60 60 57 54 53 49 46 43 46 63 64 49 47 44 34 48 74 84 90 97 97 97 98 97 99 100 98 95 96 100 100 99 98 94 90 87 85 85 87 83 76 79 76 62 64 73 71 54 55 71 67 62 66 68 77 83 85 88 90 92 82 77 81 80 77 72 75 76 68 69 64 55 56 54 56 64 56 38 27 26 24 23 23 22 21 19 14
48 47 49 47 46 49 47 44 38 36 56 66 47 35 35 31 40 66 84 91 97 97 98 99 97 99 100 100 100 99 99 98 96 97 96 88 84 83 79 81 84 81 89 86 70 71 72 61 57 66 73 65 64 71 71 79 85 86 89 92 92 80 75 83 79 73 74 80 79 73 74 69 58 54 52 52 56 57 50 37 29 25 23 22 21 21 20 17
38 35 37 37 39 45 45 41 38 40 56 69 61 45 37 30 36 58 79 91 99 97 97 98 97 98 98 97 97 97 100 98 91 87 88 86 79 83 84 78 84 91 90 79 69 67 62 62 68 71 68 64 75 84 79 83 91 92 89 86 83 71 69 75 74 77 84 86 85 81 78 72 60 50 45 48 50 52 51 46 38 28 24 22 21 21 20 19
36 30 28 29 35 41 41 40 44 48 54 64 71 61 45 37 40 52 67 88 99 97 97 97 96 99 98 98 99 98 98 99 95 82 75 81 78 77 86 85 86 96 92 80 80 74 61 61 64 58 53 60 81 86 74 76 94 101 87 77 82 76 72 75 79 90 95 91 88 84 77 67 59 52 46 45 46 47 47 47 44 31 24 23 21 21 20 20
41 32 27 25 29 33 36 40 45 50 54 63 75 72 58 48 44 47 65 92 99 94 99 98 95 100 97 98 100 97 98 100 101 91 74 76 77 68 78 92 92 92 88 82 89 90 79 72 63 52 49 63 90 95 78 74 94 104 81 71 86 84 77 82 91 99 97 89 86 82 77 68 63 58 51 47 45 45 46 46 47 38 26 22 22 21 20 20
45 39 33 29 26 25 30 37 41 46 51 62 78 86 83 74 57 49 69 99 98 85 94 99 95 97 96 96 96 96 99 96 98 102 88 80 83 72 69 81 88 90 86 83 93 94 89 88 76 61 53 61 86 94 77 74 95 98 74 68 82 81 81 90 98 101 97 93 89 86 82 75 70 59 47 45 45 45 47 46 48 46 35 23 20 21 21 20
43 41 39 36 30 25 27 31 37 42 46 60 82 92 93 95 82 67 78 100 93 78 87 98 96 95 97 98 97 97 95 91 95 102 96 91 91 83 72 67 74 90 91 85 89 86 85 92 79 62 60 60 70 74 60 70 98 96 75 74 83 87 93 97 99 100 99 98 93 89 88 81 76 64 45 43 47 44 43 42 44 47 44 32 21 18 19 20
40 38 37 36 32 26 25 28 35 43 47 61 87 95 93 99 97 87 89 94 88 82 86 93 95 96 100 100 99 99 96 95 98 99 99 99 94 87 79 68 66 83 91 83 84 86 87 90 75 60 57 49 50 55 49 60 85 91 84 87 93 98 100 99 100 101 99 98 92 88 90 82 76 68 52 45 44 38 34 36 38 41 44 41 30 19 16 19
40 38 35 34 33 28 24 25 30 40 48 60 79 88 90 95 98 98 95 90 89 91 87 88 94 98 99 100 100 99 98 99 98 98 101 99 98 90 78 73 73 80 88 86 87 90 83 84 86 75 60 48 44 48 52 62 77 89 94 94 98 101 100 99 100 99 99 98 91 88 89 82 75 69 54 40 35 31 31 33 33 33 37 42 41 29 17 17
40 40 36 33 34 31 25 24 28 36 50 61 67 76 89 93 94 97 91 81 85 89 87 92 98 98 96 98 99 97 98 101 98 99 101 98 101 98 84 84 90 87 88 91 94 95 87 88 93 82 67 63 62 64 74 83 88 96 100 98 99 100 99 101 100 99 101 92 80 79 82 80 74 66 51 35 31 33 33 31 27 28 32 36 43 40 25 16
42 42 40 35 35 36 32 29 26 31 48 62 63 68 86 98 96 91 85 82 86 86 86 96 100 98 98 97 93 92 94 98 99 98 97 96 99 97 88 84 89 92 94 94 95 98 98 96 92 84 81 81 81 88 97 98 96 99 100 99 98 96 98 99 94 93 93 83 71 67 71 70 64 61 54 39 33 34 33 30 26 26 31 34 38 43 37 24
43 42 43 41 41 43 41 35 25 30 54 66 67 70 81 98 97 80 78 86 87 81 78 85 95 97 99 100 96 95 94 93 97 97 95 96 96 97 93 80 75 81 86 89 96 99 101 101 96 94 96 94 91 95 98 98 100 100 99 100 94 89 95 95 87 87 85 78 71 67 67 65 56 54 51 39 33 33 30 27 26 26 29 33 36 40 42 36
43 43 44 43 45 46 47 41 24 38 74 71 60 77 91 96 87 70 78 87 81 84 80 74 89 99 98 100 99 97 96 95 98 98 98 100 99 99 100 88 73 68 71 86 99 98 97 99 99 98 98 100 98 95 89 89 97 100 97 98 90 81 84 82 76 79 76 68 69 70 68 64 55 47 40 32 26 24 26 27 29 30 29 31 33 35 38 40
49 46 46 45 45 45 52 52 29 42 92 87 62 82 97 94 85 73 81 86 78 89 93 79 87 99 99 100 99 96 94 94 98 98 99 100 97 95 94 87 76 66 67 84 98 99 92 88 93 98 97 98 100 99 93 89 95 101 99 97 91 81 77 69 65 69 66 60 62 65 63 57 49 41 37 36 29 21 25 32 33 34 33 31 32 32 33 35
60 56 55 55 52 50 55 60 42 37 71 88 86 92 84 78 84 77 73 78 74 81 92 94 96 100 100 99 100 99 95 94 97 99 99 97 94 92 89 85 81 72 67 69 81 96 94 85 91 99 99 99 100 100 99 95 93 97 99 97 90 84 79 71 66 65 64 63 61 59 58 53 48 41 33 36 37 27 25 33 36 36 36 34 32 31 31 32
62 59 57 58 55 53 49 53 55 45 47 70 91 93 76 67 76 77 69 71 76 81 90 97 98 97 98 99 100 101 98 97 98 99 100 99 95 92 90 84 75 71 69 60 67 89 94 89 94 99 99 100 100 100 100 97 92 92 98 97 89 86 84 79 70 62 63 67 62 55 56 54 51 46 34 31 37 32 27 31 35 35 34 33 32 28 26 28
44 42 43 50 51 48 41 39 49 54 55 63 69 73 77 74 70 73 73 70 74 86 96 96 95 95 94 93 96 99 100 99 100 99 99 100 98 92 89 82 66 68 77 69 65 76 82 90 99 100 99 100 100 99 100 98 94 91 93 93 90 87 83 81 77 69 69 71 62 53 53 53 50 46 39 33 34 36 34 33 34 35 36 36 34 29 23 21
22 21 22 31 36 36 33 29 38 59 74 72 58 52 60 64 60 66 76 77 75 83 94 95 94 97 97 93 91 94 98 99 98 99 97 95 93 86 84 81 69 74 89 86 74 69 69 82 98 101 99 100 100 99 99 99 97 97 96 92 90 86 80 80 78 72 68 67 63 56 50 47 42 35 33 34 33 38 40 37 36 38 39 39 36 33 29 20
14 15 19 25 27 27 26 26 38 63 76 67 53 42 34 34 41 52 67 81 84 79 83 91 95 97 99 98 93 90 95 98 96 95 91 87 86 84 85 82 73 77 93 96 85 75 69 71 88 102 100 99 101 96 94 97 97 99 100 97 93 88 82 81 79 75 70 62 59 59 56 48 37 26 28 33 33 35 36 33 33 34 35 36 35 34 32 24
20 15 21 30 32 29 33 35 38 52 59 53 46 41 34 27 28 36 52 73 88 88 86 92 97 96 97 99 96 92 95 99 97 94 92 89 87 86 83 78 71 72 89 101 91 80 74 65 75 97 101 98 100 94 93 99 99 97 99 100 99 91 83 79 77 77 76 67 54 53 58 49 34 28 33 37 35 32 31 30 30 31 31 32 32 31 28 24
26 23 30 38 38 33 35 37 35 39 46 46 40 35 35 32 25 27 38 56 78 92 97 98 97 96 95 96 96 94 96 99 99 96 93 88 82 76 72 72 72 68 79 98 95 83 77 68 71 90 98 99 99 94 91 91 93 97 95 92 95 94 85 75 71 70 76 76 62 55 58 46 31 31 36 38 39 35 33 34 33 32 31 29 28 26 24 23
32 41 50 47 41 38 37 38 42 46 40 32 32 32 33 34 31 28 31 42 60 77 91 98 99 98 94 93 97 98 96 97 97 94 92 87 83 79 73 71 75 77 81 91 93 88 80 70 74 92 99 98 99 96 89 84 86 89 85 82 90 96 87 74 68 65 67 72 67 63 64 48 32 35 37 38 41 39 38 39 33 28 26 26 26 23 21 22
43 55 61 55 52 53 50 43 42 40 30 25 32 36 35 34 35 34 31 35 46 59 73 86 92 96 97 96 97 96 95 97 98 97 96 93 90 88 82 73 73 78 78 76 77 81 79 69 73 93 103 100 97 94 91 91 90 85 83 87 92 93 91 82 73 66 62 62 62 64 62 46 34 38 40 42 45 42 40 38 28 23 23 23 24 23 23 22
64 65 64 66 66 61 52 41 32 25 19 25 33 33 35 36 33 33 32 32 35 42 55 68 78 90 98 101 99 95 93 94 97 98 98 98 95 92 88 80 72 72 73 70 68 72 76 70 68 82 94 95 92 87 84 91 96 94 95 98 94 90 90 86 79 73 65 60 60 61 54 43 39 41 42 45 47 42 37 31 23 20 21 21 21 21 21 21
78 74 72 83 90 83 71 62 60 51 33 30 34 33 38 39 28 24 29 32 32 33 41 53 67 86 97 99 100 100 97 96 97 99 99 99 96 93 89 81 74 77 81 79 75 73 74 70 64 64 68 70 75 75 73 78 88 92 94 96 92 85 83 86 86 77 65 63 63 55 46 43 43 44 45 46 45 42 37 27 20 20 20 19 19 18 18 18
89 78 68 76 89 96 96 90 86 73 50 41 42 36 34 34 29 26 30 31 29 28 33 41 56 79 95 98 99 99 99 99 97 97 99 99 96 92 89 83 80 86 89 85 81 77 72 68 63 59 55 52 56 59 58 59 64 67 71 76 76 73 79 89 85 70 67 71 62 47 44 45 42 42 48 47 41 41 38 28 21 22 22 20 18 17 16 15
85 68 59 64 70 80 91 85 68 52 43 44 44 35 32 33 32 30 27 29 31 31 36 41 45 62 84 96 100 98 99 101 99 98 99 99 99 96 92 90 90 92 93 88 82 79 73 67 62 59 56 53 52 53 52 51 51 52 53 55 56 61 74 81 71 64 72 72 51 39 43 41 32 33 39 42 43 43 38 29 23 22 22 20 18 17 16 14
77 66 68 76 71 62 58 51 40 34 32 39 49 49 41 35 34 31 25 26 30 32 43 49 42 47 70 89 99 100 97 95 96 97 97 95 98 97 93 94 96 96 94 87 82 80 73 67 63 59 57 59 59 57 55 53 52 52 51 50 50 52 55 55 50 54 68 63 43 39 45 35 26 28 29 32 40 44 41 35 30 27 27 25 21 17 16 14
77 64 60 70 78 72 66 63 62 59 50 50 63 64 48 35 31 26 25 30 27 24 37 45 37 39 58 78 96 101 90 80 78 80 85 91 96 95 88 83 84 93 98 89 82 83 75 67 66 62 61 66 65 61 59 56 53 50 49 49 51 52 53 54 52 58 70 62 42 43 49 34 21 23 26 29 37 46 47 42 37 37 37 35 30 22 16 15
85 77 70 80 84 77 82 89 87 88 86 84 84 73 57 48 34 21 25 29 21 15 22 28 29 35 48 67 91 97 83 72 68 64 66 71 77 81 80 74 71 81 95 93 82 79 77 73 69 66 67 69 65 62 61 56 53 53 49 46 48 52 57 57 52 53 56 47 40 53 56 31 15 19 26 30 37 43 43 38 35 37 38 40 37 30 24 19
97 96 94 96 84 69 80 92 91 95 96 88 80 69 57 45 30 27 37 34 22 16 12 14 22 32 43 61 77 79 76 77 75 69 63 60 65 75 78 76 71 67 76 88 86 79 78 75 70 68 69 68 66 64 59 56 59 58 49 44 44 44 45 47 46 45 44 41 45 51 40 20 16 22 24 26 30 33 35 36 37 38 39 40 40 38 35 25
Wind_Speed
48 48 51 58 66 66 63 59 53 49 46 47 50 50 53 54 50 49 44 42 46 47 46 44 43 43 43 43 41 40 39 40 41 44 46 43 39 38 38 38 37 37 35 34 35 36 36 36 34 32 29 26 25 23 21 21 24 27 25 22 18 16 15 13 12 10 9 8 9 10 10 9 8 7 6 6 5 4 5 4 3 4 4 3 3 3 4 4
48 49 50 54 62 66 65 62 57 52 47 46 50 51 53 55 53 53 45 41 49 49 47 46 43 44 44 43 42 40 40 40 42 44 43 39 39 41 39 39 39 38 36 35 36 35 36 36 35 33 29 26 25 23 20 20 23 26 27 24 19 18 17 15 14 13 12 10 9 10 11 11 10 9 8 7 5 5 5 4 3 3 4 5 4 3 4 5
48 49 51 52 58 64 66 65 62 57 51 46 50 53 53 57 57 57 47 39 49 51 49 48 45 45 44 44 42 40 41 40 44 45 41 39 40 41 40 40 40 39 37 36 36 35 36 35 33 31 27 25 25 23 21 20 22 24 25 26 24 21 18 16 15 15 13 12 11 11 11 11 11 10 10 8 7 7 3 3 3 2 3 6 6 5 4 5
49 49 51 52 54 60 64 67 66 62 56 48 49 53 54 59 61 62 51 40 49 54 51 50 47 47 46 45 42 40 41 42 48 45 39 39 40 40 41 41 41 40 38 37 37 36 37 34 31 30 27 25 25 23 22 21 22 23 23 25 26 24 19 16 16 16 15 13 12 12 12 12 12 11 11 10 9 6 2 1 2 2 5 7 7 6 6 6
51 49 49 51 52 56 60 65 67 64 59 51 48 52 54 60 64 66 55 41 49 53 51 52 49 48 48 45 43 42 41 43 50 44 38 39 39 39 41 41 41 40 39 38 38 39 39 37 32 30 28 27 26 25 24 23 22 22 23 24 24 24 23 20 17 16 16 15 14 13 14 14 13 13 12 12 11 7 4 4 5 6 8 9 8 9 9 9
51 50 48 48 50 52 56 61 65 64 62 55 49 52 55 60 65 67 56 42 46 48 47 52 50 49 49 46 45 45 46 45 44 42 40 40 38 38 39 40 41 39 40 40 40 42 42 39 35 32 31 29 29 28 27 25 24 22 24 23 22 23 24 24 21 18 17 17 17 16 16 16 15 15 15 15 11 8 7 8 10 9 10 10 11 11 10 10
50 49 47 47 49 51 54 57 61 64 64 60 51 50 54 59 62 65 57 43 44 47 45 49 51 51 49 48 47 46 51 48 38 36 41 40 36 37 38 39 40 39 40 41 43 44 43 41 38 36 34 32 31 30 28 27 26 25 25 24 22 23 23 24 24 22 20 19 19 19 18 17 17 18 18 16 12 10 10 11 13 13 12 12 12 11 10 10
50 49 46 47 49 51 52 53 57 61 64 64 56 49 51 57 59 63 60 44 40 44 44 46 49 52 51 51 52 52 55 52 41 33 36 40 37 36 38 39 40 39 40 43 44 44 42 41 40 38 36 34 33 31 30 28 27 27 26 25 24 25 24 24 26 26 25 23 22 21 20 19 19 21 22 17 12 12 12 12 15 15 15 14 13 12 12 12
49 50 47 46 47 49 50 50 52 54 58 64 62 53 48 54 59 63 63 48 39 40 42 46 48 50 53 53 54 57 56 51 46 37 32 37 38 36 37 39 40 39 41 43 44 43 42 41 40 38 37 35 33 31 31 29 28 28 27 26 26 25 25 24 25 27 27 26 25 24 23 23 22 23 24 19 15 14 12 13 16 17 16 16 14 14 14 13
49 50 47 46 46 47 48 46 46 45 50 60 64 59 49 51 58 62 65 52 42 41 39 43 48 49 55 57 56 60 56 46 46 43 33 32 36 37 36 38 39 39 41 43 44 44 41 40 38 37 35 33 33 32 31 30 29 28 27 26 27 25 24 23 23 24 25 26 27 28 26 25 25 26 25 21 17 15 14 14 16 18 18 17 16 16 15 15
49 49 48 45 44 46 46 42 41 43 46 55 63 63 53 50 56 61 64 55 45 45 39 38 48 51 55 60 61 62 55 46 45 46 39 30 32 37 37 37 38 38 41 44 44 44 40 38 37 34 33 32 32 31 31 30 29 28 26 26 27 26 25 23 23 23 24 25 27 29 31 29 29 31 27 21 18 16 16 16 16 18 19 19 18 17 17 17
47 47 47 46 43 44 45 41 41 43 43 50 59 63 57 50 54 60 63 57 47 45 41 39 47 52 54 58 63 63 54 47 43 44 42 33 28 33 36 35 36 37 39 42 43 41 38 37 35 33 33 32 32 30 30 30 29 27 27 27 27 27 27 25 23 23 23 27 27 27 32 35 34 32 26 21 21 19 18 18 18 18 20 20 19 19 18 18
46 45 45 45 41 41 43 41 42 43 42 46 53 61 61 52 53 59 62 60 53 46 42 42 46 50 52 56 62 62 53 47 42 42 44 38 30 30 34 34 35 37 38 40 43 41 39 38 35 34 33 31 31 30 27 28 28 28 28 28 29 28 29 27 23 22 23 26 27 25 30 37 36 33 26 24 25 22 20 20 20 19 20 21 21 20 20 20
45 45 43 42 39 37 39 38 39 40 39 41 45 56 63 56 52 59 63 63 60 48 39 42 46 50 54 56 59 59 52 47 44 43 45 44 37 32 35 37 36 38 40 41 42 41 41 40 38 36 35 32 30 30 27 26 26 28 29 27 30 28 25 27 23 22 23 23 25 25 31 38 38 33 27 27 27 25 23 22 21 21 21 22 22 22 22 22
44 44 42 40 38 35 35 35 34 35 34 37 40 50 63 60 53 59 63 64 65 52 36 39 49 54 58 58 57 56 52 49 46 44 44 45 42 36 35 37 37 37 39 41 41 40 39 38 37 36 35 32 31 30 28 27 24 26 26 22 28 27 22 26 24 22 22 22 24 25 29 37 39 35 29 29 29 28 26 23 22 22 22 23 24 24 24 23
41 41 40 38 36 33 33 32 31 32 33 36 37 43 61 64 55 59 63 60 64 59 40 35 48 56 59 59 57 54 53 52 49 46 43 43 43 39 35 35 37 36 36 38 38 38 37 35 34 33 33 33 33 32 29 28 26 27 23 16 21 25 24 27 26 23 23 24 27 26 27 32 35 36 33 31 31 30 28 26 24 23 23 24 24 25 25 24
40 39 38 36 34 32 31 30 30 31 31 35 35 38 57 67 58 57 60 54 58 64 49 32 41 52 52 54 57 55 55 54 51 48 45 43 42 39 36 35 37 38 37 38 37 37 36 34 34 33 33 33 33 33 29 27 28 28 24 16 17 23 23 25 25 23 23 24 27 28 30 32 33 35 36 32 32 33 32 29 27 26 25 25 25 25 26 26
38 36 35 34 33 30 29 29 28 29 29 32 34 36 53 68 62 55 53 47 50 62 54 37 43 48 43 50 57 55 55 54 51 49 46 44 42 39 37 36 36 38 39 40 39 37 35 34 35 34 35 34 34 36 33 29 31 31 27 23 23 27 27 27 26 24 23 24 26 26 29 30 30 34 37 35 34 35 35 32 31 29 27 26 26 26 27 27
35 34 33 32 31 29 28 27 26 28 29 29 32 34 45 62 66 58 51 42 44 55 49 40 49 50 43 50 55 53 53 51 49 48 46 45 44 40 37 35 35 37 41 41 39 38 38 36 37 38 40 39 37 38 35 29 31 33 31 28 28 30 31 31 28 26 25 25 27 28 29 29 28 31 36 39 38 37 37 36 33 32 31 29 28 28 27 28
33 32 32 31 29 28 27 28 28 28 29 29 31 32 38 54 64 61 55 45 43 53 46 37 46 50 49 50 51 53 52 48 48 48 47 46 45 43 39 37 36 37 41 42 41 40 38 38 42 44 44 42 39 37 33 29 29 27 27 27 27 28 30 31 28 26 26 26 29 29 29 30 29 28 31 36 41 41 39 39 37 35 34 32 30 29 28 28
32 31 31 30 28 29 28 29 31 30 30 30 31 34 38 51 63 64 59 50 44 51 49 41 46 52 53 51 50 53 52 50 49 49 48 46 45 45 42 40 40 41 41 42 42 40 38 39 45 45 41 40 37 35 35 33 29 23 23 24 25 27 28 29 27 25 26 27 28 28 29 31 31 30 28 30 39 45 43 41 40 38 36 35 34 32 30 29
32 32 31 30 29 29 30 31 32 32 31 30 31 34 35 45 63 67 59 51 45 48 49 43 46 53 56 54 50 47 50 52 50 48 50 48 47 48 48 46 45 44 42 41 41 40 40 44 45 41 37 36 34 33 33 31 28 24 23 24 25 27 27 26 26 26 26 27 28 30 32 33 33 34 33 30 34 42 46 45 43 40 38 38 37 34 32 32
31 32 31 31 30 30 32 33 33 34 32 31 31 32 33 38 55 65 56 48 44 46 49 43 40 50 58 56 47 40 46 54 53 52 52 50 51 51 52 51 48 46 42 42 44 43 43 45 43 38 33 32 31 31 30 27 26 26 25 25 26 28 27 21 22 25 26 27 29 31 36 38 37 37 38 36 33 36 43 48 47 45 41 39 38 36 35 34
30 31 31 32 32 32 34 33 34 36 34 32 29 29 30 32 46 59 55 47 42 41 50 47 33 38 52 57 49 39 41 50 55 55 53 53 54 52 52 52 49 47 45 45 45 43 43 40 36 36 33 31 29 28 29 28 28 28 28 29 29 30 30 24 22 24 25 27 29 30 34 40 41 38 38 38 36 37 41 46 51 50 46 41 38 38 36 35
28 29 30 31 32 33 35 35 36 36 34 31 27 27 28 28 39 50 51 49 43 37 46 52 36 26 39 52 50 40 37 46 53 55 54 53 53 53 52 50 48 46 47 46 43 42 43 37 33 34 34 32 29 29 32 32 31 32 32 33 31 30 30 30 28 27 26 25 28 26 21 24 34 37 36 34 34 36 39 44 50 52 49 46 42 39 37 35
25 26 28 29 32 33 34 36 37 35 34 30 25 25 25 27 34 41 46 45 40 37 38 48 46 31 34 46 47 40 39 47 51 51 53 52 51 53 51 48 48 48 49 45 39 38 42 39 34 33 33 32 29 28 33 33 30 33 37 34 32 31 30 31 31 28 22 18 21 23 16 15 30 41 38 32 31 32 35 41 47 52 53 50 46 42 37 35
24 24 26 27 30 33 34 36 36 35 36 32 27 23 21 24 28 35 40 27 27 40 37 39 49 41 37 45 49 44 42 48 52 51 54 54 51 52 51 50 49 48 49 44 38 38 42 41 37 34 33 33 31 30 35 33 28 32 36 31 29 30 30 31 32 30 26 23 25 27 24 19 29 43 41 34 34 33 33 37 41 46 52 52 50 47 42 38
25 24 24 26 28 31 33 33 35 36 36 34 31 24 20 21 22 31 32 10 9 32 34 34 46 45 39 42 48 48 43 46 53 55 55 55 54 54 53 52 51 49 46 45 44 41 42 43 42 39 35 34 35 34 35 32 29 32 31 27 27 27 27 28 29 29 28 25 24 26 24 17 21 36 38 34 38 38 34 33 35 38 45 51 51 49 47 43
24 24 24 24 26 29 31 32 34 35 34 34 31 25 21 20 19 26 24 8 8 21 26 31 43 46 40 38 45 50 45 41 49 57 58 57 57 55 53 52 52 49 44 45 46 40 37 40 41 40 38 37 36 34 33 32 32 33 28 25 25 23 23 23 22 24 21 17 19 23 22 15 18 30 37 38 38 35 30 28 29 30 36 45 50 50 49 47
23 24 23 23 24 26 29 31 33 34 33 33 31 27 22 20 23 22 13 11 16 17 19 28 39 46 44 38 42 49 47 40 45 56 57 57 58 56 54 51 50 50 45 43 44 40 37 35 35 38 39 39 37 33 32 31 33 32 28 26 23 19 18 17 17 16 12 12 18 25 25 19 15 17 28 38 34 28 28 27 25 25 28 36 44 48 49 48
23 23 22 22 22 22 25 27 29 31 31 31 32 30 24 21 26 18 6 15 23 17 20 28 36 43 44 43 43 47 48 40 43 55 56 55 58 56 54 49 46 47 44 43 43 40 36 31 33 37 39 38 35 32 29 29 33 31 28 28 21 13 11 10 10 10 8 6 7 16 20 18 17 14 17 29 29 28 30 28 25 24 24 28 36 44 49 48
23 23 22 22 21 21 22 23 26 28 28 31 32 31 26 20 19 14 7 15 20 19 26 29 33 42 41 43 47 48 51 45 41 53 57 56 57 57 57 54 52 46 40 45 46 39 36 34 35 36 38 40 36 32 30 28 33 33 31 31 20 7 5 6 4 4 9 7 3 5 6 15 33 35 31 34 32 29 31 29 27 26 23 24 28 35 44 48
24 24 23 22 21 20 20 21 24 24 26 30 31 32 30 16 11 18 19 16 13 18 32 29 28 40 42 45 51 49 51 50 46 50 57 60 59 56 56 58 59 51 45 50 48 37 29 30 37 38 36 41 40 37 38 36 37 37 35 34 22 8 4 7 6 2 7 11 8 7 7 16 36 38 33 34 33 32 32 31 30 27 25 23 24 29 37 45
24 24 24 23 21 19 19 21 23 24 25 30 32 32 29 13 9 25 30 21 12 14 31 36 29 36 43 48 54 52 49 49 48 51 57 59 56 52 53 56 57 54 50 48 44 38 27 21 36 43 39 41 41 40 42 41 39 36 32 31 27 17 9 6 7 6 4 4 7 11 10 13 21 21 18 17 22 27 26 24 22 20 20 19 19 24 29 36
23 23 23 22 21 19 18 19 23 27 27 30 34 33 27 14 14 28 31 27 21 13 24 36 33 36 43 47 51 53 52 50 51 53 56 59 58 55 57 59 58 56 53 46 40 41 35 24 34 45 42 41 39 37 39 37 34 32 30 29 28 27 19 7 6 10 5 1 7 14 18 23 26 29 27 19 21 26 24 24 25 23 22 21 21 22 22 26
22 22 22 21 20 18 18 18 22 29 28 26 29 32 32 24 18 23 26 29 30 20 19 29 33 36 40 42 46 49 49 51 55 55 53 58 62 60 60 61 62 59 57 53 45 41 35 23 31 44 41 39 38 37 38 37 34 32 33 34 32 30 27 13 4 7 5 6 10 15 24 33 33 37 40 34 32 33 33 35 35 31 26 21 20 18 17 20
21 22 21 20 19 17 17 18 20 26 29 26 24 25 33 33 23 20 23 29 32 25 21 27 32 36 36 37 42 45 43 47 56 56 52 53 56 60 62 60 61 60 58 58 51 44 35 21 25 39 37 34 37 37 37 37 36 34 35 40 35 25 24 21 9 4 6 8 9 14 24 27 21 24 29 26 22 20 23 27 25 21 17 15 14 10 10 16
21 22 22 21 21 20 18 18 18 21 25 28 28 26 29 33 30 24 22 27 32 28 24 25 30 36 38 38 42 43 40 45 55 53 49 49 47 55 65 61 60 62 58 56 49 45 42 22 16 31 33 30 35 35 34 37 40 39 37 37 32 19 17 22 14 4 6 8 6 10 19 23 27 33 31 27 20 14 15 20 22 20 19 19 16 12 10 13
22 23 23 23 24 24 22 20 18 19 21 26 31 31 30 30 32 29 24 24 30 31 27 25 29 35 38 41 45 46 42 44 55 54 48 50 47 52 66 64 60 62 58 54 49 46 46 27 14 26 34 29 32 35 37 41 42 41 37 35 34 24 15 21 21 10 5 6 7 7 7 19 40 46 39 36 34 27 24 26 29 28 25 23 20 17 16 16
22 23 22 22 24 25 24 22 21 21 22 25 29 31 32 31 32 32 29 25 25 29 31 29 28 32 36 39 44 50 47 45 56 58 51 54 52 50 63 66 62 64 58 52 48 43 44 36 21 25 32 31 34 40 43 44 45 43 38 35 37 30 18 16 23 22 11 4 5 6 6 19 38 37 29 27 23 20 18 15 16 19 19 20 20 19 20 21
21 24 22 21 22 24 24 25 25 25 25 26 28 28 30 32 33 33 34 30 26 26 29 29 29 30 33 38 43 50 49 46 56 58 50 54 55 49 59 68 65 65 60 52 49 44 41 40 31 31 36 35 35 41 41 39 43 47 41 37 38 35 25 13 14 26 27 15 8 4 7 26 42 36 29 25 17 13 10 7 9 12 14 17 19 20 21 23
22 26 23 20 21 23 25 27 27 28 30 29 26 25 27 30 32 34 35 35 33 30 27 27 30 32 33 37 42 48 50 48 54 58 51 54 61 56 57 67 67 65 62 55 51 47 41 37 33 31 35 34 29 35 40 37 40 43 40 39 38 35 35 22 9 17 29 25 21 10 8 32 51 41 31 26 20 17 16 13 11 13 17 18 19 21 21 24
25 25 22 19 20 21 24 27 27 30 32 29 26 25 26 28 30 33 35 37 39 38 34 30 29 32 35 36 38 44 49 49 53 58 53 51 60 59 53 62 67 62 61 58 50 46 39 33 29 23 21 26 24 27 35 36 37 41 44 46 41 36 39 31 13 12 18 23 25 12 8 36 52 41 32 29 24 22 20 18 14 13 17 19 20 24 23 24
25 24 22 20 20 21 26 29 30 32 32 29 28 28 27 27 29 31 35 38 40 41 41 37 31 31 34 35 39 44 45 45 47 53 51 45 53 56 50 57 67 65 62 60 56 50 40 33 33 22 11 12 16 16 24 35 43 46 45 45 45 40 38 36 26 15 12 21 25 12 13 40 45 31 27 26 21 19 16 16 15 16 19 20 22 26 26 27
21 21 22 19 19 23 27 29 30 31 32 31 31 31 30 30 30 30 32 36 40 42 44 43 38 33 32 33 39 45 47 45 44 49 50 44 45 51 48 50 61 66 62 57 56 53 43 38 41 32 17 13 15 13 25 42 48 45 38 38 44 44 41 40 32 16 15 27 31 25 30 45 39 27 22 17 13 13 13 16 18 19 20 21 21 22 24 25
20 22 22 18 22 27 28 27 27 29 31 32 33 34 33 33 31 30 32 36 40 43 45 46 45 40 35 34 35 42 49 50 44 46 51 47 43 48 49 48 53 59 57 52 52 51 44 41 45 43 38 37 32 22 25 37 42 42 40 39 41 43 44 42 33 27 32 30 29 41 51 48 40 33 24 14 10 13 16 20 21 20 19 18 17 18 19 20
23 27 27 22 29 39 37 31 30 32 32 33 35 35 35 35 34 32 34 38 40 44 48 49 49 46 40 35 35 41 48 51 47 45 48 47 44 45 46 44 47 54 55 51 50 50 44 40 42 42 42 46 43 32 26 29 34 41 44 42 41 42 44 45 43 45 42 24 23 48 55 47 47 43 31 21 14 13 19 24 23 20 18 16 16 16 15 16
28 32 34 29 30 40 45 41 39 38 37 37 39 38 37 38 38 36 37 39 41 45 49 50 51 52 45 36 35 41 47 48 46 44 45 45 42 41 40 38 42 53 54 49 49 50 45 41 41 39 37 39 42 38 32 25 24 29 36 39 42 43 46 51 54 54 46 33 38 51 47 44 50 46 41 37 26 20 21 23 24 21 18 18 18 17 16 16
34 34 34 33 35 39 43 44 45 43 43 43 42 42 42 42 41 40 39 41 45 49 51 50 52 57 54 42 37 43 50 49 45 43 45 45 41 40 41 40 43 53 55 51 50 49 45 41 40 41 40 37 34 33 32 26 20 22 27 33 39 42 46 50 52 52 51 50 52 51 45 46 47 42 43 42 35 31 28 27 29 27 24 23 22 20 19 17
37 38 36 36 40 43 45 46 47 47 48 47 46 45 46 46 46 44 43 45 49 51 54 55 55 58 59 52 43 44 52 56 53 50 51 50 46 45 47 49 51 56 57 55 53 52 48 40 40 44 39 31 29 27 24 23 21 20 22 27 35 42 47 51 51 51 56 56 53 51 51 49 43 40 41 41 39 37 34 33 33 32 31 31 29 25 22 21
38 38 36 36 41 45 47 49 50 51 50 49 49 47 47 49 49 47 48 50 52 53 56 59 60 59 59 57 51 49 53 55 52 51 52 54 55 56 56 56 57 59 61 59 56 55 51 40 37 43 36 28 28 26 21 21 17 16 23 31 38 44 49 52 50 49 52 52 51 54 54 48 42 40 39 40 41 39 36 32 28 26 28 31 34 34 29 26
36 37 35 37 45 50 50 51 53 55 56 54 53 53 53 54 52 49 51 53 54 56 56 59 62 61 61 60 55 51 53 52 49 50 51 53 57 62 61 59 59 59 62 63 58 55 54 46 40 41 35 27 26 23 22 19 10 16 39 48 44 43 43 45 47 48 49 51 52 53 50 43 42 42 39 36 34 33 32 28 23 24 25 27 34 40 38 34
Wind_Direction
220 221 221 220 220 221 218 215 213 210 208 210 211 209 208 205 203 203 204 208 212 211 210 208 206 207 210 211 212 212 213 214 215 216 215 213 211 213 213 212 212 212 211 212 215 213 211 215 217 219 221 222 224 226 226 222 217 213 212 212 218 229 226 228 230 221 217 224 223 222 228 234 246 246 240 246 254 278 284 279 277 260 258 245 216 198 187 179
217 218 220 220 220 222 221 218 215 212 209 207 209 209 207 205 202 202 203 203 207 210 210 209 207 207 210 212 212 213 215 216 217 218 215 212 212 213 213 212 212 213 212 213 216 215 214 216 217 218 220 221 222 223 219 215 211 208 212 213 215 223 224 227 228 226 225 224 223 224 228 236 247 246 237 237 244 256 260 269 280 270 275 272 250 225 206 187
217 216 218 219 220 222 222 220 218 215 211 207 206 208 206 204 203 204 206 203 202 208 211 209 207 207 210 212 212 214 216 219 220 218 213 211 213 213 213 213 212 213 213 214 216 215 215 216 217 217 216 217 218 217 212 208 209 208 212 215 216 219 221 226 228 229 228 226 227 225 227 237 245 245 238 237 241 238 236 301 304 284 268 260 248 231 217 198
216 216 216 218 220 221 223 222 221 218 213 208 204 206 207 205 204 207 211 206 201 206 210 208 207 206 209 211 211 214 216 222 223 216 212 213 213 213 213 213 214 213 213 215 215 214 213 212 212 213 210 209 209 209 208 206 208 209 213 218 220 221 221 223 228 232 233 231 230 227 225 233 241 241 238 239 237 223 193 320 284 222 229 233 230 220 208 198
215 215 215 218 220 221 223 222 222 221 215 210 204 204 209 206 206 211 212 205 201 204 207 207 207 207 208 209 210 214 215 222 224 215 211 215 214 214 214 213 214 214 214 214 214 212 209 206 205 205 204 204 203 202 205 208 209 211 216 220 223 226 227 226 228 233 238 238 235 230 226 230 237 236 235 237 233 221 210 221 209 211 226 223 217 212 200 190
216 215 214 217 220 221 223 223 223 224 218 211 205 203 207 208 208 213 213 205 204 204 203 206 208 209 209 209 210 214 215 220 223 214 212 215 214 215 214 213 214 214 214 213 212 210 206 204 202 201 202 203 204 204 207 211 213 215 220 223 224 228 230 230 230 232 239 243 241 236 231 231 234 233 232 233 232 232 229 217 206 209 221 221 214 211 203 191
218 216 214 215 220 221 223 225 224 224 220 212 208 204 205 209 211 214 212 206 208 209 204 203 206 209 211 209 210 215 218 219 220 214 213 215 214 215 214 213 213 214 213 210 209 207 204 203 201 201 203 204 206 208 211 213 216 217 222 226 227 231 233 233 234 234 236 242 245 242 238 236 235 233 232 229 233 238 230 220 213 210 211 217 218 213 210 200
217 217 216 215 219 221 222 226 225 225 223 214 210 207 205 208 211 212 210 204 205 212 208 203 206 209 210 211 211 215 218 216 215 213 212 213 213 213 212 211 211 212 211 207 206 205 203 204 204 204 203 206 209 211 212 215 218 220 224 228 230 233 235 237 239 238 239 241 245 246 243 243 240 236 232 224 231 241 232 225 222 217 211 212 215 214 213 208
216 216 217 218 219 221 223 226 227 226 225 219 212 208 206 209 210 209 210 206 201 210 211 206 209 209 210 213 214 217 217 212 211 212 212 212 212 212 211 210 209 209 208 206 204 203 203 204 206 207 206 209 212 213 214 216 220 223 226 230 232 233 235 238 240 241 242 240 242 246 245 244 242 240 235 223 227 240 235 230 229 226 219 213 213 213 213 212
213 215 217 220 221 222 224 226 227 226 225 223 216 210 208 209 210 208 209 208 202 209 213 209 210 207 208 212 214 220 219 212 210 211 211 211 212 212 210 210 209 208 207 205 204 203 203 206 208 209 211 213 214 215 216 217 222 227 228 232 235 236 238 241 243 245 245 241 239 243 244 242 242 241 236 224 226 237 236 233 232 232 228 221 215 213 214 213
210 213 215 219 223 223 226 226 223 225 223 222 220 213 209 210 210 208 208 206 203 208 213 213 210 203 205 210 214 220 218 213 212 211 211 209 210 213 211 210 209 208 207 206 207 205 202 205 209 209 211 213 215 219 221 221 226 232 234 238 241 243 245 246 248 249 248 247 243 244 245 241 238 238 233 227 229 232 233 232 233 234 232 228 222 217 215 214
208 210 213 216 221 222 226 225 220 224 223 221 222 216 210 209 209 207 206 205 203 207 211 213 208 203 203 205 213 220 217 213 213 212 213 208 206 210 211 211 210 209 209 208 209 207 204 206 208 208 211 214 215 219 225 227 229 235 238 242 246 248 249 248 249 250 250 251 250 252 252 243 236 236 231 230 233 231 229 230 233 234 234 232 226 221 218 216
208 208 211 213 217 219 221 223 221 225 225 222 224 219 211 208 208 205 204 203 204 208 213 213 206 204 205 203 210 217 214 212 212 212 214 210 203 204 206 208 209 209 209 211 212 208 206 206 206 208 213 215 215 218 224 228 230 235 238 241 245 248 250 248 247 250 251 251 250 255 257 247 237 235 230 228 233 232 228 228 232 235 235 234 230 224 221 219
208 207 209 210 214 215 217 220 221 225 226 224 224 221 213 206 205 204 202 203 206 209 214 215 210 206 208 209 212 213 210 210 211 212 214 211 205 200 201 203 205 207 208 212 214 211 208 205 203 206 213 215 217 220 224 228 230 233 236 238 242 244 249 249 246 249 252 252 249 251 257 251 239 233 229 228 233 233 229 228 231 235 236 236 233 228 224 222
206 207 208 210 211 212 214 216 217 218 220 221 220 220 215 206 203 202 202 205 207 207 210 216 213 208 208 210 213 212 208 208 209 210 212 212 209 203 201 200 201 204 206 211 214 213 212 209 205 206 212 215 218 222 223 225 227 228 230 234 238 239 249 254 251 250 251 253 250 247 255 255 243 232 229 229 233 235 231 228 230 233 237 239 237 232 228 225
201 205 207 209 209 209 211 211 212 211 213 216 216 220 216 208 202 201 203 208 208 206 207 214 211 206 207 209 211 210 207 207 208 208 210 211 211 209 204 200 200 202 204 209 212 212 212 212 212 214 216 217 218 220 219 221 223 222 220 223 233 234 245 256 255 251 250 251 251 248 253 259 250 237 231 228 231 236 234 229 229 231 236 239 240 238 233 229
199 203 205 207 208 207 208 207 207 207 210 215 216 220 217 209 203 202 204 209 210 208 209 215 212 209 211 211 210 207 204 206 206 205 207 207 207 209 207 202 200 200 201 205 208 210 209 209 213 218 221 220 219 217 213 212 214 215 214 217 231 235 241 250 253 252 250 252 253 254 255 259 257 244 235 230 229 234 235 231 229 229 232 237 241 241 237 233
197 201 202 205 206 205 205 204 204 204 207 214 216 220 219 211 205 205 206 207 210 210 212 218 213 208 208 210 209 206 204 204 204 204 205 205 202 203 207 206 202 199 199 203 205 206 206 208 213 217 219 219 217 215 212 211 212 214 217 222 232 238 241 245 252 255 254 256 257 259 262 263 261 251 240 234 231 233 234 233 231 228 229 233 238 241 239 235
196 199 201 202 202 201 202 200 198 200 203 208 212 217 221 215 208 208 209 206 207 207 211 215 210 206 208 210 209 206 205 204 203 204 205 204 200 197 200 205 206 203 201 201 202 202 202 205 209 213 215 213 211 212 213 218 221 222 227 230 236 242 247 249 253 258 261 264 262 262 267 267 262 255 245 237 234 234 234 234 233 230 228 231 235 239 240 237
194 196 199 199 199 198 197 196 194 196 200 204 209 213 218 216 212 211 210 208 206 204 207 212 209 212 213 210 207 204 204 204 204 205 204 203 200 195 194 197 202 204 207 205 202 202 201 204 210 212 214 214 213 212 213 220 224 226 230 234 239 244 249 252 253 258 263 266 265 265 270 268 262 259 252 242 238 236 234 233 233 233 231 231 232 236 239 238
194 196 198 198 197 196 193 194 194 194 198 204 211 214 217 217 214 211 208 208 208 205 209 208 199 207 213 209 207 205 201 199 203 207 205 202 200 195 192 193 197 200 205 208 206 203 201 207 214 214 214 216 216 216 218 222 223 222 227 231 239 242 245 253 255 258 263 264 265 266 267 267 264 263 259 249 241 236 234 234 233 233 234 232 232 233 235 236
197 199 199 199 197 196 193 195 195 194 197 206 214 216 220 222 217 212 207 209 211 205 210 209 193 199 209 209 208 205 201 197 197 205 205 202 200 198 196 194 197 200 199 203 204 201 205 213 217 214 214 217 218 220 221 222 221 219 224 229 235 239 243 253 259 259 260 262 264 266 268 267 266 266 263 256 247 238 233 234 235 234 234 233 232 232 233 234
200 201 201 201 199 196 194 195 194 192 195 204 212 215 218 222 218 215 212 212 215 207 209 213 200 200 206 206 206 202 202 201 197 200 203 203 201 200 201 197 197 200 197 199 201 199 206 215 217 213 213 215 215 218 219 218 220 220 223 226 231 236 238 246 258 258 257 260 265 270 275 273 267 263 260 258 255 245 234 233 236 236 235 234 233 233 233 233
198 200 201 201 199 196 194 194 194 192 193 199 207 211 215 220 218 217 214 212 217 211 208 210 203 207 210 207 205 199 200 206 205 204 202 202 202 200 203 201 197 199 201 203 203 204 210 213 212 212 214 216 213 213 215 214 217 221 222 225 231 236 238 243 252 258 263 268 269 274 282 279 271 262 259 259 258 250 239 233 234 235 235 234 233 234 234 234
193 196 199 199 198 195 193 194 195 194 193 195 203 207 209 213 215 217 214 212 218 215 209 209 203 204 210 209 208 203 202 207 209 210 205 203 203 199 200 202 199 199 203 204 203 208 215 215 210 211 214 214 212 213 215 213 214 220 222 224 230 236 242 249 254 261 269 270 271 276 281 279 273 268 266 266 262 253 243 236 233 233 234 235 233 233 235 236
186 189 192 194 195 193 192 195 195 194 193 192 199 206 208 207 209 213 210 209 222 220 210 211 208 201 201 206 208 203 200 204 206 210 208 204 206 205 199 199 200 203 205 202 202 208 215 217 213 212 213 211 209 214 218 215 212 221 225 223 228 236 243 251 255 260 261 258 269 273 264 270 276 272 269 271 269 260 249 242 237 233 232 234 235 234 234 237
181 184 187 191 193 192 194 195 193 192 192 189 191 200 206 202 203 207 204 206 228 222 213 209 209 207 201 203 205 198 195 200 199 203 206 202 203 206 202 199 199 204 206 199 199 209 214 215 214 212 214 213 211 214 219 216 212 225 229 224 229 237 242 250 254 255 256 259 269 269 262 269 274 268 266 267 268 266 257 248 244 238 233 233 236 236 235 237
180 182 185 189 193 194 195 195 193 193 191 189 187 191 193 193 197 198 195 195 225 215 214 209 206 209 207 204 205 200 196 199 193 192 199 198 197 201 203 205 203 202 203 198 199 209 212 213 213 210 210 214 215 218 220 213 211 225 228 222 229 238 242 248 252 253 258 267 268 262 259 265 268 265 266 269 267 266 261 253 250 246 238 233 234 238 238 238
179 182 183 188 193 196 195 194 195 195 192 191 188 186 188 187 185 184 186 195 200 201 208 204 201 207 208 205 207 204 200 201 194 188 189 192 195 198 200 205 208 202 201 202 204 209 211 212 215 214 213 217 218 221 222 215 213 222 223 221 228 235 239 242 247 252 259 264 256 251 251 258 272 267 264 267 266 261 259 257 256 253 245 236 233 236 239 238
178 181 181 186 191 195 196 194 195 195 192 192 189 187 189 181 172 170 176 202 201 198 198 195 197 203 206 203 203 205 202 201 198 190 184 185 191 197 198 201 206 203 200 203 206 211 214 212 214 215 217 220 219 218 219 216 218 220 217 217 220 221 224 230 237 244 254 259 251 251 251 254 269 266 258 262 260 256 262 267 264 259 253 245 236 235 237 238
178 181 181 184 189 194 196 195 195 195 193 192 189 188 188 180 175 174 175 193 199 205 193 188 193 198 204 202 199 204 202 199 199 193 185 182 187 193 194 192 194 196 197 200 204 211 215 212 210 213 216 219 218 214 211 213 218 219 215 208 201 194 199 215 228 224 235 253 252 259 256 245 243 237 248 260 258 258 266 271 270 264 259 254 245 238 237 239
180 182 182 184 188 190 191 192 192 192 194 193 192 191 188 182 184 192 190 182 193 208 198 188 188 192 198 201 201 204 202 199 199 197 192 186 186 192 193 190 187 184 187 196 200 206 211 211 209 211 214 216 215 207 199 207 215 215 209 198 184 161 171 196 203 204 237 246 247 255 220 226 244 248 253 261 262 262 266 268 271 269 262 256 249 243 239 239
182 182 184 186 188 188 186 187 187 187 192 193 192 192 192 191 191 195 195 184 179 199 202 200 193 191 192 195 198 200 200 200 199 198 197 191 188 191 194 195 193 188 188 193 192 191 197 205 205 205 208 213 215 204 192 194 201 202 198 192 183 158 155 204 202 197 247 245 237 222 203 242 257 263 266 264 263 265 267 269 273 274 269 259 247 243 240 238
182 181 184 187 188 188 186 184 182 182 186 190 192 192 192 197 189 188 193 194 182 185 198 204 202 193 192 193 195 195 195 199 201 197 194 191 189 189 191 195 197 197 194 190 188 186 183 194 201 202 205 207 210 211 205 198 194 195 197 198 197 192 186 203 208 212 238 237 212 197 206 245 253 259 266 259 256 263 269 273 275 275 274 268 254 246 242 240
181 181 182 184 187 187 184 181 180 180 178 181 189 193 194 197 190 187 189 191 194 190 189 198 201 193 192 193 194 195 193 194 199 197 191 190 190 190 192 195 198 199 195 188 188 190 190 196 200 201 206 206 202 207 212 205 195 194 198 201 205 208 208 201 212 221 216 221 208 199 221 242 244 251 257 256 257 262 269 275 276 279 279 277 271 261 252 246
180 180 178 177 181 184 181 179 181 187 187 182 185 193 199 203 198 191 192 191 195 198 183 187 195 194 194 192 189 191 194 193 193 192 191 193 194 194 195 196 196 198 198 193 189 188 189 196 199 198 203 206 203 204 207 207 202 196 195 199 205 211 212 208 229 225 210 257 241 216 238 253 259 265 264 263 265 265 267 272 275 278 279 276 274 271 264 257
185 184 180 175 177 181 181 180 182 191 197 197 196 197 199 203 204 197 198 196 195 197 189 185 191 196 198 195 189 186 189 190 188 187 189 191 196 197 197 199 198 198 203 201 194 187 183 178 189 194 194 195 201 205 207 211 212 204 198 202 204 207 213 217 232 223 205 253 252 224 243 256 261 266 265 262 264 261 262 270 274 273 274 277 278 274 261 254
198 193 187 182 185 188 189 187 188 193 198 202 208 209 203 203 205 203 203 203 201 201 199 191 191 196 198 199 196 189 185 185 184 185 187 188 195 200 198 201 201 200 204 205 201 196 189 171 165 190 191 187 194 202 204 210 217 217 214 211 205 203 210 211 215 225 218 238 262 238 245 254 250 250 254 255 255 251 250 265 275 276 278 280 273 258 246 244
209 202 192 189 195 198 198 197 195 194 197 202 210 215 213 208 207 207 206 206 207 208 210 208 201 197 198 201 200 194 189 186 183 184 186 189 196 202 201 201 201 200 202 203 204 203 196 184 161 184 190 184 187 197 200 203 209 215 220 217 210 209 205 202 206 213 215 226 253 250 238 256 258 257 259 262 265 265 262 266 272 274 275 273 266 256 248 243
217 211 195 189 197 200 200 200 198 196 199 205 212 217 218 215 213 213 212 210 210 211 215 220 216 205 201 201 201 198 194 189 185 185 189 193 196 200 202 203 201 199 199 199 203 203 197 192 177 172 182 185 190 198 202 204 203 204 208 206 204 204 197 202 215 218 222 234 253 258 250 259 263 264 267 271 273 271 266 261 259 262 265 260 256 253 245 238
225 222 207 193 198 198 195 197 199 202 207 210 214 217 219 220 217 216 217 216 214 214 215 221 224 218 210 204 202 199 195 191 188 188 191 194 195 199 202 203 202 199 196 195 200 201 196 195 186 172 179 189 197 201 202 205 206 205 203 199 200 200 192 192 217 218 221 227 230 248 281 267 265 266 269 271 272 265 251 223 230 255 265 254 243 240 237 234
230 231 223 208 205 202 199 203 206 209 212 215 217 218 221 223 221 219 220 219 218 218 217 218 220 220 219 213 206 199 194 191 189 190 194 197 200 204 203 201 203 202 198 194 196 197 195 192 184 177 184 191 200 206 204 206 210 210 211 210 207 205 203 201 205 213 214 221 233 245 289 270 266 267 269 267 261 255 252 252 258 262 260 250 235 229 230 231
231 234 234 225 219 213 206 207 209 212 218 222 222 224 225 226 225 223 220 220 222 224 223 220 216 215 220 221 214 204 195 193 192 192 196 200 204 207 205 201 201 202 200 196 193 192 193 189 176 165 178 190 199 210 209 209 212 213 217 217 210 206 208 207 213 222 208 212 226 228 259 262 264 268 268 263 257 254 258 265 262 241 234 232 226 226 228 230
234 236 240 236 230 222 212 210 212 216 224 227 224 224 227 229 231 228 224 223 223 225 226 223 218 215 218 219 219 213 201 195 194 194 196 200 203 206 205 201 201 201 202 201 197 192 190 188 177 157 138 184 202 213 211 211 211 212 216 214 211 210 208 209 219 228 223 224 220 202 242 255 260 267 265 260 256 251 249 250 240 222 223 226 224 228 231 234
233 237 241 240 236 234 229 227 226 226 228 227 226 227 226 227 230 229 227 226 225 227 228 224 220 220 221 219 219 217 208 201 197 195 197 199 201 204 204 202 202 202 203 203 201 196 190 188 186 175 159 178 192 194 202 205 206 210 213 212 213 212 207 212 219 219 234 236 221 211 235 246 251 260 260 253 249 242 228 227 225 217 222 229 230 234 237 238
230 232 233 223 214 223 236 242 238 235 233 230 230 232 228 228 232 231 227 226 226 229 231 228 225 226 229 227 220 213 208 205 201 197 198 199 201 202 203 203 203 202 201 200 200 197 192 192 197 198 198 197 191 188 202 204 202 205 209 210 214 214 210 212 214 217 228 229 220 227 237 243 248 254 255 248 240 238 226 219 218 217 221 228 231 236 240 240
228 230 230 216 200 204 216 228 233 235 236 233 233 234 233 232 234 233 228 225 225 229 232 234 232 231 233 232 222 212 206 204 203 202 200 200 202 201 200 202 202 200 199 199 199 196 192 194 200 206 212 210 204 203 212 212 210 212 213 213 215 215 212 211 213 221 223 215 227 239 241 244 249 250 248 246 236 233 230 219 217 223 228 232 233 234 237 237
230 234 235 231 218 208 211 224 236 239 237 234 235 236 236 233 231 231 229 224 224 228 231 234 234 232 232 231 222 212 203 200 203 204 202 201 200 196 192 193 197 199 198 197 198 198 196 200 203 204 211 216 212 211 213 212 215 221 222 221 219 215 213 213 218 223 221 219 236 245 244 248 255 256 255 254 243 232 233 224 220 228 232 237 239 234 232 230
234 237 237 236 235 230 230 241 248 247 242 237 233 231 232 233 232 234 233 224 222 227 230 231 232 230 227 228 224 212 203 201 201 202 203 202 200 193 185 184 191 197 198 196 197 200 202 206 208 206 207 210 209 212 215 216 220 226 228 229 227 224 222 223 226 225 223 228 239 244 248 255 261 262 262 261 254 243 239 232 230 234 235 238 243 238 229 224
236 237 237 236 237 238 240 243 246 245 243 238 231 229 231 233 234 236 235 225 219 223 228 230 231 229 226 226 224 217 212 211 210 209 206 202 199 195 191 192 193 193 196 198 198 200 203 207 209 205 203 204 207 210 212 218 225 226 226 228 229 230 230 230 231 227 224 232 241 243 247 255 259 258 259 262 260 253 248 245 244 245 243 241 240 236 232 228
239 241 240 238 241 242 239 238 239 238 235 230 228 229 229 231 235 238 236 230 223 223 228 230 228 227 228 227 226 223 220 219 220 221 218 213 210 206 202 201 199 193 192 197 199 199 200 203 205 202 199 200 206 208 210 212 217 222 227 227 224 225 227 227 229 227 225 233 239 238 241 249 254 254 254 256 258 259 261 262 260 257 252 244 236 234 235 234
243 243 241 240 244 245 241 238 236 233 230 231 233 233 233 234 238 235 230 228 225 224 229 231 226 225 226 225 224 222 219 219 223 226 226 225 221 215 209 205 204 200 195 195 197 199 200 201 200 196 194 194 194 196 198 193 187 227 232 230 224 222 225 227 229 230 229 232 235 236 240 250 255 257 258 259 264 269 271 273 269 262 258 246 235 232 233 231